Temp
76 83 84 76 61 61 57 60 69 66 65 68 73 68 65 66 64 54 75 80 80 77 78 74 74 76 75 75 75 76 76 76 76 76 76 76 76 76 76 76 76 76 77 76 76 75 74 74 74
81 88 78 71 58 54 56 66 64 67 70 71 70 68 66 63 72 72 72 82 81 80 78 77 73 75 75 75 75 76 76 76 76 76 76 76 76 76 76 76 76 76 76 76 75 74 74 73 74
79 86 69 65 61 55 56 64 66 69 71 68 66 68 68 65 73 73 77 81 82 80 79 76 73 75 75 75 74 75 75 76 76 76 76 76 76 75 76 75 75 75 75 75 74 74 73 73 74
80 75 73 60 59 63 64 66 69 67 67 69 69 65 69 72 74 77 79 82 81 80 78 72 74 75 75 74 75 75 75 76 76 75 75 75 75 75 75 75 74 74 74 74 73 73 72 72 72
77 72 61 59 61 66 68 72 72 67 67 68 66 63 63 72 77 78 78 81 79 79 76 74 73 74 74 75 75 75 75 76 75 75 75 75 74 74 74 74 73 73 73 73 72 72 71 71 71
68 70 58 56 62 67 67 70 71 69 70 67 63 64 63 73 73 75 78 78 81 77 76 74 70 71 72 74 74 74 75 74 74 74 74 74 74 74 73 73 73 72 72 72 71 70 70 70 71
64 62 58 60 61 62 68 71 64 67 68 67 68 61 63 68 73 75 77 78 79 79 76 73 72 71 68 70 71 72 73 73 73 73 73 72 72 72 72 72 72 72 71 71 70 69 70 70 70
67 65 60 58 60 59 68 69 68 67 65 68 68 62 58 69 74 75 75 76 76 75 75 73 73 72 71 69 68 69 70 71 71 70 68 68 68 68 68 68 70 71 70 70 69 68 69 68 68
70 58 56 61 61 62 69 65 66 67 67 65 69 64 66 74 74 71 70 72 72 73 74 74 74 73 72 71 68 66 67 68 67 66 65 65 66 67 67 66 68 69 69 69 67 67 67 66 66
63 57 61 69 68 65 68 67 67 62 64 64 65 66 68 71 69 64 64 67 68 68 72 74 74 74 75 76 68 69 70 68 69 68 66 68 67 67 66 62 64 66 66 67 67 67 66 64 61
65 58 66 68 68 69 67 65 68 64 61 67 67 65 68 67 67 64 64 66 66 66 69 73 74 74 73 72 71 72 70 69 69 69 67 69 67 64 62 59 59 58 60 60 62 61 60 61 59
58 67 67 67 65 64 63 68 64 65 63 69 69 70 67 66 67 67 65 67 67 67 68 69 70 70 73 72 72 70 71 69 69 69 69 69 67 64 62 60 58 58 61 57 57 57 58 58 59
61 64 66 66 62 63 66 62 63 64 70 70 71 70 67 66 67 68 69 69 68 68 69 71 70 68 73 72 69 69 72 70 68 68 69 69 66 64 64 61 59 61 61 62 58 56 56 56 57
64 65 64 64 64 63 60 61 60 65 69 69 69 66 66 67 68 67 68 70 70 71 70 70 69 72 74 71 67 66 67 69 70 69 69 67 67 65 64 62 60 60 61 61 61 60 56 54 54
63 56 60 62 63 60 60 57 59 66 66 66 66 65 68 69 70 68 69 69 72 72 71 69 67 68 68 69 69 69 66 68 67 67 69 69 67 64 63 60 60 58 58 59 60 57 57 55 54
57 55 49 61 62 59 55 50 64 65 66 64 65 65 67 69 70 70 70 70 70 70 69 70 70 68 68 67 67 69 69 68 66 66 67 68 68 65 62 61 59 57 58 57 55 54 52 53 50
53 46 51 54 62 58 56 52 60 62 61 59 63 65 67 68 69 69 70 69 70 70 69 68 68 67 67 67 66 66 67 66 68 67 68 67 67 66 63 61 59 57 56 55 54 52 54 52 51
48 47 53 49 56 53 52 52 61 63 63 61 62 64 66 67 69 70 70 69 68 68 68 69 67 66 65 65 63 63 63 63 65 68 70 68 66 66 64 61 56 57 55 53 52 51 51 51 51
54 54 51 55 56 51 53 54 59 64 63 61 61 63 65 67 70 72 70 68 66 65 66 68 65 64 65 62 61 58 60 59 61 69 66 67 66 65 63 61 57 56 54 53 52 51 49 49 51
52 50 50 56 56 51 51 53 58 62 63 64 64 64 65 66 68 70 68 65 65 65 63 64 66 64 65 64 63 59 57 57 59 59 59 62 64 64 62 60 57 56 54 52 51 50 48 48 49
50 49 50 50 52 53 46 47 53 60 63 64 66 68 67 66 66 68 67 65 62 62 61 63 65 65 64 63 60 57 56 55 55 54 58 57 59 60 61 59 57 56 55 52 51 50 50 47 47
48 56 55 52 46 40 48 35 48 58 59 62 62 61 62 65 67 68 66 62 61 63 60 62 62 61 62 61 60 58 58 54 52 52 53 56 56 57 58 58 57 56 55 53 51 52 52 48 47
50 53 51 49 43 42 42 36 46 55 55 60 63 64 63 63 64 64 65 66 63 60 58 58 59 60 60 62 61 58 54 53 51 51 51 54 54 55 55 56 55 55 54 53 51 50 50 50 48
54 50 49 46 44 32 43 43 43 50 55 58 60 62 63 60 61 62 62 61 60 58 57 56 57 57 58 58 59 56 54 52 51 50 51 52 52 52 52 52 53 54 53 51 50 50 51 50 49
48 46 33 31 28 30 42 40 49 56 60 59 60 58 58 58 59 58 57 57 56 55 54 55 56 56 56 56 56 56 54 53 52 52 51 51 51 50 49 50 50 51 52 51 51 49 48 48 47
45 46 34 27 28 31 36 34 45 58 58 58 60 59 56 57 60 58 59 58 55 55 53 53 54 54 55 55 54 55 56 56 56 54 53 52 51 50 50 49 50 50 50 49 49 47 47 47 46
45 40 49 38 26 27 37 45 55 56 57 57 57 58 58 58 57 57 58 58 54 53 52 52 52 53 54 54 53 53 53 53 54 53 51 51 51 51 48 48 47 48 48 49 48 47 45 46 44
46 51 37 36 23 23 35 38 43 50 54 57 54 53 56 56 55 56 57 56 54 53 53 53 53 52 52 53 52 52 52 52 53 52 50 51 51 51 50 47 48 47 47 47 47 45 45 44 44
42 41 43 45 38 28 28 37 52 52 55 55 54 57 53 52 54 55 55 54 53 52 51 51 51 51 51 51 51 50 49 50 51 51 50 49 49 48 47 46 46 45 44 44 44 42 42 42 41
44 46 46 35 33 34 32 41 54 56 56 57 56 57 56 56 57 56 56 55 52 51 50 50 50 50 50 50 50 48 49 49 49 49 49 48 47 45 43 41 39 39 39 41 42 40 42 40 39
MSLP
1011.88 1011.06 1010.85 1010.83 1011.29 1010.22 1010.23 1011.00 1011.05 1011.76 1012.05 1012.70 1012.78 1013.28 1013.70 1014.16 1014.79 1016.23 1016.45 1016.45 1016.98 1018.00 1018.73 1019.47 1019.76 1020.15 1020.42 1020.61 1020.82 1020.95 1021.02 1021.09 1021.30 1021.40 1021.47 1021.51 1021.46 1021.53 1021.55 1021.55 1021.43 1021.44 1021.70 1021.90 1022.13 1022.29 1022.32 1022.34 1022.32
1011.73 1011.06 1011.00 1010.72 1010.51 1010.14 1010.59 1010.96 1011.38 1011.87 1012.58 1012.94 1013.29 1013.44 1013.56 1014.76 1015.07 1015.74 1016.17 1016.32 1016.93 1017.81 1018.70 1019.31 1019.92 1020.24 1020.51 1020.81 1020.97 1021.22 1021.38 1021.48 1021.57 1021.76 1021.82 1021.87 1021.87 1021.87 1021.94 1021.95 1022.00 1022.02 1022.16 1022.40 1022.62 1022.83 1022.79 1022.81 1022.71
1012.08 1011.33 1011.44 1010.45 1010.03 1010.40 1010.75 1010.93 1011.45 1012.31 1012.73 1013.00 1013.37 1013.75 1013.94 1015.07 1015.46 1015.90 1016.14 1016.42 1016.96 1017.72 1018.56 1019.24 1019.92 1020.31 1020.65 1020.93 1021.25 1021.46 1021.70 1021.77 1021.89 1022.08 1022.19 1022.15 1022.25 1022.35 1022.37 1022.34 1022.45 1022.61 1022.67 1022.90 1023.12 1023.24 1023.24 1023.29 1023.21
1011.56 1011.35 1011.09 1010.50 1010.20 1010.60 1010.64 1010.90 1011.44 1012.39 1013.04 1013.32 1013.44 1014.01 1014.84 1015.31 1015.40 1015.69 1016.28 1016.43 1017.01 1017.73 1018.48 1019.35 1019.87 1020.24 1020.65 1020.98 1021.32 1021.56 1021.80 1021.88 1022.07 1022.32 1022.46 1022.55 1022.60 1022.69 1022.70 1022.82 1022.99 1023.22 1023.34 1023.49 1023.65 1023.69 1023.83 1023.90 1023.73
1011.47 1011.19 1010.89 1010.39 1010.18 1010.55 1010.80 1010.86 1011.49 1012.25 1012.77 1013.34 1013.65 1014.17 1015.24 1015.53 1015.62 1015.99 1016.39 1016.66 1017.26 1017.93 1018.73 1019.41 1019.91 1020.34 1020.71 1021.05 1021.36 1021.61 1021.82 1021.98 1022.31 1022.59 1022.76 1022.85 1022.94 1023.03 1023.15 1023.31 1023.55 1023.77 1023.85 1024.05 1024.13 1024.29 1024.37 1024.44 1024.41
1011.41 1010.99 1010.88 1010.38 1010.27 1010.55 1010.76 1011.09 1011.47 1011.96 1012.53 1013.29 1013.74 1014.03 1015.25 1015.74 1016.17 1016.30 1016.50 1016.69 1016.97 1018.04 1018.74 1019.53 1020.14 1020.46 1020.78 1020.98 1021.36 1021.66 1021.92 1022.17 1022.55 1022.73 1022.94 1023.05 1023.24 1023.38 1023.53 1023.74 1023.94 1024.14 1024.35 1024.54 1024.60 1024.88 1024.95 1024.96 1024.93
1011.54 1011.41 1011.03 1010.58 1010.40 1010.47 1010.77 1011.20 1011.48 1011.89 1012.46 1012.96 1013.33 1013.89 1015.38 1015.94 1016.20 1016.36 1016.62 1016.78 1016.95 1017.75 1018.61 1019.55 1020.12 1020.50 1020.81 1021.12 1021.53 1021.84 1022.12 1022.35 1022.74 1022.94 1023.16 1023.36 1023.44 1023.69 1023.84 1024.09 1024.33 1024.49 1024.74 1024.84 1025.08 1025.27 1025.43 1025.41 1025.44
1011.59 1011.55 1011.38 1010.76 1010.48 1010.76 1010.97 1011.40 1011.59 1011.88 1012.69 1013.00 1013.37 1014.12 1015.18 1015.61 1016.04 1016.48 1016.70 1016.88 1017.28 1017.83 1018.57 1019.38 1019.98 1020.46 1020.77 1021.16 1021.51 1021.93 1022.19 1022.51 1022.83 1023.13 1023.48 1023.68 1023.82 1024.07 1024.27 1024.49 1024.70 1024.86 1025.11 1025.34 1025.53 1025.75 1025.86 1025.96 1025.94
1011.67 1012.03 1011.60 1010.90 1010.58 1010.88 1011.28 1011.62 1012.06 1012.31 1012.59 1013.16 1013.75 1014.30 1014.74 1015.18 1016.09 1016.71 1016.95 1017.08 1017.41 1017.99 1018.74 1019.12 1019.58 1020.10 1020.56 1021.04 1021.61 1021.95 1022.26 1022.64 1023.03 1023.48 1023.69 1023.89 1024.17 1024.42 1024.59 1024.93 1025.09 1025.30 1025.49 1025.69 1025.96 1026.17 1026.28 1026.30 1026.38
1011.80 1011.90 1011.59 1011.14 1010.94 1011.25 1011.55 1011.76 1012.06 1012.61 1012.86 1013.22 1013.95 1014.86 1015.07 1015.64 1016.43 1017.04 1017.16 1017.31 1017.60 1018.19 1018.65 1019.04 1019.40 1019.68 1020.17 1020.57 1021.41 1021.90 1022.25 1022.62 1022.95 1023.36 1023.66 1023.72 1024.10 1024.57 1024.97 1025.32 1025.53 1025.75 1025.90 1026.05 1026.25 1026.42 1026.51 1026.61 1026.74
1011.58 1011.67 1011.82 1011.70 1011.84 1011.98 1011.83 1011.97 1011.89 1012.35 1012.78 1012.70 1013.42 1014.50 1015.32 1015.88 1016.52 1017.27 1017.52 1017.48 1017.59 1017.93 1018.33 1018.80 1019.07 1019.46 1019.89 1020.42 1021.03 1021.48 1021.95 1022.37 1022.68 1023.02 1023.42 1023.49 1024.02 1024.65 1025.17 1025.70 1026.01 1026.20 1026.30 1026.37 1026.55 1026.79 1026.90 1027.04 1027.30
1011.92 1011.54 1011.97 1012.35 1012.67 1012.73 1012.52 1012.31 1012.15 1012.56 1012.39 1012.39 1012.72 1013.32 1014.63 1015.69 1016.17 1016.59 1017.20 1017.42 1017.62 1018.16 1018.43 1018.62 1018.79 1019.18 1019.62 1020.15 1020.57 1020.93 1021.30 1021.79 1022.22 1022.53 1022.96 1023.26 1023.81 1024.36 1025.02 1025.42 1026.04 1026.36 1026.48 1026.75 1026.88 1027.10 1027.23 1027.44 1027.67
1012.22 1011.85 1012.38 1012.78 1013.14 1013.29 1013.11 1013.01 1012.67 1012.37 1012.34 1012.46 1012.70 1013.39 1014.41 1015.20 1015.60 1015.91 1016.26 1016.89 1017.11 1017.51 1018.04 1018.39 1018.72 1019.24 1019.29 1019.63 1020.15 1020.48 1020.67 1021.10 1021.54 1022.04 1022.45 1022.78 1023.46 1023.96 1024.65 1025.08 1025.72 1026.04 1026.27 1026.51 1027.02 1027.42 1027.65 1027.82 1027.97
1012.36 1012.25 1012.65 1013.01 1013.42 1013.54 1013.66 1013.28 1012.94 1012.27 1012.02 1012.40 1012.76 1013.40 1014.04 1014.49 1014.86 1015.40 1015.69 1015.93 1016.30 1016.66 1017.09 1017.70 1018.43 1018.66 1018.87 1019.24 1019.77 1020.21 1020.30 1020.61 1020.94 1021.37 1021.86 1022.29 1022.89 1023.46 1024.08 1024.47 1025.24 1025.74 1025.98 1026.35 1026.82 1027.31 1027.83 1028.18 1028.32
1012.81 1012.79 1012.91 1013.10 1013.60 1013.88 1013.88 1013.63 1012.65 1012.04 1012.07 1012.48 1012.82 1012.98 1013.51 1013.83 1014.11 1014.44 1014.70 1015.12 1015.41 1015.74 1016.20 1016.97 1017.74 1018.38 1018.54 1018.83 1019.28 1019.68 1019.93 1020.20 1020.53 1020.84 1021.25 1021.78 1022.30 1022.91 1023.67 1024.53 1024.91 1025.56 1025.90 1026.15 1026.58 1027.30 1027.88 1028.46 1028.70
1013.12 1013.13 1013.24 1012.58 1013.51 1014.17 1014.34 1013.26 1011.98 1011.63 1011.83 1012.50 1012.74 1012.76 1012.81 1013.04 1013.14 1013.52 1013.73 1014.18 1014.76 1015.20 1015.68 1016.30 1017.07 1017.75 1018.16 1018.25 1018.54 1018.90 1019.16 1019.60 1020.01 1020.39 1020.73 1021.20 1021.78 1022.41 1023.16 1023.83 1024.49 1025.00 1025.70 1026.17 1026.89 1027.25 1028.13 1028.67 1029.15
1013.26 1013.25 1013.27 1013.42 1013.65 1014.18 1014.57 1013.51 1012.59 1011.97 1012.00 1012.39 1012.55 1012.53 1012.37 1012.19 1012.25 1012.51 1012.90 1013.42 1013.97 1014.38 1015.00 1015.58 1016.29 1017.00 1017.64 1017.99 1018.23 1018.58 1018.87 1019.23 1019.46 1019.73 1019.94 1020.44 1021.04 1021.79 1022.64 1023.28 1024.09 1024.69 1025.43 1026.09 1026.77 1027.45 1027.72 1028.54 1029.39
1013.23 1013.48 1013.12 1013.40 1014.10 1014.45 1014.51 1013.86 1012.88 1012.28 1012.22 1012.25 1012.22 1012.09 1011.92 1011.60 1011.40 1011.71 1012.09 1012.66 1013.38 1013.77 1014.30 1015.03 1015.76 1016.48 1017.20 1017.80 1018.18 1018.49 1018.76 1018.93 1019.07 1019.22 1019.50 1019.86 1020.49 1021.29 1022.07 1022.87 1023.88 1024.45 1025.13 1026.07 1026.69 1027.22 1027.70 1028.19 1029.06
1013.17 1013.49 1013.31 1013.50 1014.25 1014.55 1014.43 1013.76 1012.86 1012.00 1011.58 1011.58 1011.61 1011.29 1011.20 1011.07 1010.75 1010.84 1011.20 1011.80 1012.67 1013.45 1014.07 1014.49 1015.28 1016.01 1016.72 1017.32 1017.90 1018.28 1018.44 1018.60 1018.84 1018.65 1019.22 1019.46 1020.01 1020.71 1021.33 1022.15 1023.20 1023.91 1024.54 1025.36 1025.70 1027.16 1027.53 1028.26 1028.85
1013.50 1014.04 1013.97 1013.87 1014.37 1014.87 1014.42 1013.51 1012.49 1011.65 1010.74 1010.58 1010.56 1010.49 1010.25 1010.21 1010.12 1010.26 1010.58 1011.22 1011.90 1012.66 1013.38 1014.06 1014.60 1015.29 1015.94 1016.62 1017.11 1017.64 1017.97 1018.26 1018.47 1018.70 1018.97 1019.20 1019.30 1019.86 1020.83 1021.37 1022.28 1022.94 1023.99 1024.84 1026.09 1026.21 1027.01 1027.75 1028.15
1013.98 1014.25 1014.48 1014.64 1014.91 1014.64 1014.78 1013.50 1011.70 1010.25 1009.80 1009.66 1009.43 1009.38 1009.44 1009.52 1009.67 1009.74 1010.09 1010.62 1011.32 1012.13 1012.78 1013.45 1013.87 1014.59 1015.46 1016.15 1016.93 1017.52 1018.00 1018.29 1018.46 1018.53 1018.80 1019.03 1019.23 1019.38 1020.01 1020.79 1021.45 1022.16 1022.79 1023.64 1024.67 1025.30 1025.41 1026.26 1027.41
1014.60 1014.28 1014.62 1015.15 1015.93 1015.74 1015.29 1014.00 1011.68 1010.53 1009.52 1009.17 1008.74 1008.94 1008.74 1009.00 1008.85 1009.18 1009.56 1010.33 1010.79 1011.39 1012.12 1012.84 1013.64 1014.38 1015.04 1015.65 1016.29 1016.81 1017.03 1017.60 1017.68 1017.97 1018.47 1018.87 1019.18 1019.42 1019.79 1020.32 1020.66 1021.37 1022.00 1022.90 1023.60 1023.98 1024.51 1024.83 1025.84
1015.09 1015.08 1015.30 1015.67 1016.54 1016.48 1015.74 1015.28 1011.37 1010.29 1009.42 1008.63 1008.14 1008.19 1008.18 1008.33 1008.45 1008.82 1009.36 1009.74 1010.48 1011.18 1011.91 1012.67 1013.20 1013.77 1014.25 1014.89 1015.42 1016.09 1016.74 1017.01 1017.34 1017.90 1018.53 1018.98 1019.45 1019.54 1019.73 1019.90 1020.30 1020.72 1021.31 1021.95 1022.70 1023.53 1024.03 1024.26 1024.74
1015.61 1015.96 1016.26 1016.78 1017.22 1016.85 1015.66 1014.71 1011.18 1010.04 1008.80 1007.88 1007.65 1007.89 1008.31 1008.74 1008.87 1009.22 1009.56 1010.00 1010.38 1010.96 1011.64 1012.28 1012.89 1013.43 1013.95 1014.54 1015.06 1015.44 1015.95 1016.67 1017.23 1017.54 1017.96 1018.39 1019.00 1019.23 1019.53 1019.74 1019.88 1020.22 1020.63 1021.34 1022.07 1022.75 1023.01 1023.59 1023.84
1016.13 1016.54 1017.21 1017.96 1018.14 1016.49 1015.03 1013.97 1010.79 1008.95 1007.98 1007.97 1007.92 1008.06 1008.58 1008.92 1009.20 1009.65 1010.12 1010.58 1010.91 1011.43 1011.87 1012.32 1012.84 1013.35 1013.69 1014.17 1014.65 1015.17 1015.60 1015.91 1016.22 1016.55 1016.97 1017.48 1018.06 1018.35 1018.54 1018.86 1019.07 1019.35 1019.73 1020.54 1021.14 1022.02 1022.45 1022.93 1023.42
1016.09 1016.30 1016.56 1017.48 1018.02 1017.16 1015.63 1012.91 1009.98 1008.47 1007.85 1007.68 1007.75 1008.10 1008.66 1009.16 1009.33 1009.57 1010.06 1010.43 1010.99 1011.68 1012.15 1012.61 1013.02 1013.42 1013.70 1013.97 1014.30 1014.56 1015.00 1015.43 1015.69 1015.92 1016.10 1016.41 1016.88 1017.52 1017.92 1018.48 1018.72 1019.02 1019.44 1020.07 1020.69 1021.30 1021.97 1022.49 1023.11
1016.04 1016.17 1015.98 1017.11 1017.94 1017.57 1015.11 1011.96 1009.93 1008.71 1008.32 1008.18 1008.15 1008.60 1008.88 1009.27 1009.68 1009.81 1010.03 1010.50 1011.20 1011.94 1012.35 1012.71 1013.12 1013.45 1013.69 1013.77 1014.03 1014.38 1014.65 1014.87 1015.19 1015.34 1015.52 1015.86 1016.21 1016.61 1017.11 1017.61 1018.12 1018.57 1018.98 1019.43 1020.09 1020.74 1021.38 1021.95 1022.41
1015.38 1015.52 1016.25 1017.21 1018.08 1017.61 1014.50 1012.49 1010.42 1009.45 1008.95 1008.29 1008.44 1008.91 1009.23 1009.60 1009.81 1010.09 1010.36 1010.95 1011.58 1011.85 1012.26 1012.61 1012.89 1013.15 1013.39 1013.53 1013.78 1014.08 1014.29 1014.46 1014.56 1014.67 1014.81 1014.95 1015.36 1015.91 1016.42 1017.03 1017.60 1017.99 1018.28 1018.73 1019.43 1020.02 1020.68 1021.35 1021.86
1015.82 1015.61 1015.83 1016.25 1016.84 1016.34 1014.85 1012.07 1009.47 1009.01 1008.78 1008.79 1009.03 1009.26 1009.65 1009.88 1010.19 1010.35 1010.74 1011.13 1011.68 1011.95 1012.26 1012.38 1012.64 1012.79 1012.90 1013.06 1013.20 1013.49 1013.79 1013.96 1014.14 1014.22 1014.29 1014.42 1014.80 1015.22 1015.65 1016.25 1016.88 1017.42 1017.92 1018.45 1019.03 1019.62 1020.02 1020.58 1021.15
1015.09 1014.85 1015.51 1015.83 1016.45 1016.18 1015.11 1010.83 1009.29 1008.91 1008.82 1008.94 1009.43 1009.50 1009.61 1009.85 1010.32 1010.50 1010.71 1011.01 1011.45 1012.07 1012.49 1012.43 1012.44 1012.49 1012.44 1012.44 1012.51 1012.83 1013.21 1013.54 1013.79 1013.82 1013.98 1014.32 1014.60 1015.02 1015.48 1015.98 1016.49 1016.94 1017.39 1017.90 1018.45 1018.97 1019.40 1019.89 1020.61
Wind_Speed
10 8 4 3 2 3 4 5 8 7 4 3 8 5 5 8 6 4 13 11 15 14 12 9 6 8 10 11 12 12 12 13 13 14 13 14 15 14 13 13 16 19 19 19 18 18 18 18 17
7 7 2 4 3 2 4 9 5 8 8 8 5 2 1 5 7 9 6 13 15 15 12 10 10 10 11 12 12 13 13 13 14 14 14 14 14 15 14 15 16 19 19 18 17 17 18 18 16
9 4 2 3 3 5 5 3 10 9 6 3 4 2 5 4 10 10 10 13 14 10 13 12 11 11 11 12 13 14 13 13 14 14 13 14 15 15 14 17 18 17 17 17 17 17 18 17 15
3 2 4 2 3 7 7 5 12 8 4 4 4 8 5 7 10 9 9 12 11 11 12 14 13 12 13 13 14 14 14 14 14 14 14 14 15 15 14 16 17 17 17 16 17 17 17 15 13
2 4 4 4 4 5 5 8 9 6 8 7 2 4 5 4 8 11 9 9 12 11 12 11 12 12 13 13 14 14 14 13 14 14 14 15 15 16 15 16 17 16 16 16 17 17 16 14 13
3 2 4 4 7 7 4 5 6 6 6 6 2 4 5 9 6 8 8 8 12 14 12 11 9 10 11 12 13 12 14 14 13 14 14 15 15 16 16 17 17 17 17 17 17 17 16 14 15
2 3 8 6 4 4 6 5 3 5 8 6 3 1 5 9 9 6 8 8 9 13 12 9 8 9 9 10 10 11 13 13 13 13 13 13 14 14 15 15 16 17 17 17 17 17 16 15 17
2 2 9 3 3 2 6 6 1 4 4 2 3 3 6 10 9 9 7 7 9 10 10 11 8 8 7 6 9 10 11 11 12 12 12 11 12 12 12 12 15 17 17 17 18 17 16 15 15
1 2 6 7 4 1 8 5 2 3 5 1 5 3 3 12 10 7 7 7 6 8 10 6 10 9 7 7 7 8 11 11 11 11 12 10 5 7 7 9 13 16 17 18 17 17 15 12 11
3 3 7 7 7 5 7 6 9 3 6 5 6 6 3 11 9 6 5 7 7 9 10 9 8 9 10 9 9 6 7 6 8 7 8 6 7 6 8 8 11 13 14 17 17 16 12 7 4
5 3 6 6 7 8 2 4 1 6 5 8 10 13 9 8 9 11 8 6 6 4 5 9 11 8 9 6 7 5 5 5 6 10 7 5 7 7 6 4 4 4 6 4 6 5 2 7 5
2 2 3 4 4 2 3 3 4 7 4 4 6 14 13 12 12 14 14 11 11 9 8 5 3 4 9 7 7 6 7 6 6 8 10 5 5 7 6 5 5 4 3 4 4 4 6 7 6
4 2 3 6 2 4 5 5 5 7 11 5 5 8 12 11 11 10 12 12 9 15 15 12 7 6 5 6 5 5 7 6 6 7 9 6 7 6 8 6 6 4 4 4 5 5 5 5 6
6 5 3 4 4 2 2 5 2 7 10 7 9 8 8 11 12 9 9 15 15 12 17 14 12 12 12 7 6 4 4 6 7 7 9 7 8 6 7 8 7 5 5 4 6 5 4 4 5
1 1 4 6 6 1 2 7 11 11 3 6 7 10 10 10 11 12 12 10 14 10 10 16 15 12 8 10 10 7 5 4 5 5 9 10 9 9 9 6 7 6 4 6 6 6 6 4 5
3 1 2 0 8 3 2 7 7 1 10 9 9 8 10 12 11 10 10 10 9 9 10 14 14 15 12 7 6 6 6 6 5 5 6 9 11 12 10 9 8 8 6 5 5 7 5 4 4
4 4 7 4 7 3 6 7 3 3 2 5 9 9 10 10 11 11 11 10 11 10 10 10 15 15 16 10 5 5 6 4 6 5 6 8 10 13 10 9 8 10 7 7 7 4 7 6 4
3 4 5 2 5 2 5 11 15 7 8 10 10 9 9 10 11 10 12 11 10 10 10 10 10 12 10 8 5 4 4 4 4 5 5 7 8 13 11 9 10 10 9 8 7 9 5 5 6
4 7 6 4 3 1 8 12 12 10 8 9 10 10 11 12 9 11 11 12 11 10 10 13 11 11 9 7 7 5 7 4 4 7 4 8 7 12 13 10 12 11 11 11 13 8 10 5 6
1 6 7 6 6 1 8 14 11 11 11 11 11 11 11 9 10 9 11 11 13 12 10 9 12 13 12 10 8 5 4 4 3 4 5 5 10 12 11 12 13 14 10 12 11 12 8 1 10
4 6 7 5 3 7 4 11 7 10 12 11 12 13 10 10 9 9 10 12 11 12 11 11 12 13 12 10 5 3 3 1 3 5 7 5 4 7 11 13 12 14 12 13 15 15 13 10 10
5 4 6 4 4 4 3 8 4 10 8 9 10 9 10 10 9 8 6 7 11 13 9 10 9 9 10 10 9 10 9 7 5 4 4 6 5 6 7 12 13 13 11 13 14 13 11 9 13
2 3 3 3 3 5 5 3 9 7 7 7 10 9 7 5 7 7 8 7 9 9 9 8 9 10 10 12 10 9 8 5 3 4 7 7 7 9 9 11 12 13 11 13 15 14 12 10 10
7 4 3 2 2 6 10 10 5 6 6 3 3 4 7 6 6 5 5 5 3 7 8 8 9 7 8 9 11 10 10 7 6 6 7 7 7 9 8 8 11 12 12 13 12 14 16 13 10
2 4 1 3 0 9 3 5 11 8 10 5 6 5 3 6 4 2 5 4 4 5 6 6 7 8 8 9 9 9 8 10 10 9 9 10 8 7 11 12 11 10 12 12 13 13 13 11 11
10 8 7 7 5 4 6 9 7 9 3 3 5 5 1 5 5 7 7 6 7 6 5 5 6 6 8 8 9 8 9 7 7 7 7 8 8 9 10 11 10 10 11 10 11 9 10 11 9
6 8 2 4 2 4 6 7 7 6 7 7 7 6 8 7 6 6 5 5 7 6 6 7 6 5 6 7 7 7 7 8 7 8 7 6 7 7 10 12 12 11 11 12 12 10 12 11 10
3 1 3 2 3 5 7 8 9 2 8 10 3 3 5 5 5 4 4 5 3 5 5 7 7 8 7 7 7 6 7 7 8 7 8 8 7 9 11 12 12 12 11 12 12 8 10 11 9
3 4 3 3 5 6 6 8 3 2 6 8 6 6 3 2 2 3 3 3 3 3 5 6 7 8 8 8 7 7 7 7 7 7 7 7 6 7 9 11 12 12 11 10 10 9 10 12 10
2 6 7 5 3 3 3 17 2 7 8 8 4 3 4 5 4 2 2 5 4 5 6 7 7 7 8 8 8 8 7 7 7 7 7 6 7 5 7 7 8 8 9 10 12 11 11 13 12
Wind_Direction
293 248 272 307 293 207 107 89 95 96 102 62 39 27 47 35 16 102 147 166 140 139 148 160 166 159 156 142 136 117 108 101 98 95 95 93 92 93 89 80 88 88 88 85 83 82 83 83 84
299 313 265 266 242 285 78 107 120 93 89 88 104 259 220 84 76 124 122 130 136 143 143 158 164 151 154 141 131 116 110 107 103 100 97 96 96 94 92 85 88 91 91 86 85 86 86 84 87
259 280 285 225 284 55 86 92 107 86 96 138 122 349 358 76 106 148 129 130 135 131 144 136 146 146 149 138 131 121 117 112 106 102 101 99 99 97 95 89 90 89 88 90 90 88 87 86 83
310 224 271 272 8 69 49 80 104 112 96 355 355 107 78 295 146 112 150 139 132 139 118 135 142 144 143 142 137 127 124 118 114 113 110 108 106 103 99 94 90 89 91 90 90 88 84 82 70
223 263 263 230 82 88 84 59 117 156 139 147 202 113 83 62 71 120 158 145 133 125 124 133 141 146 145 145 141 137 131 123 119 118 115 111 109 106 102 98 95 96 95 95 92 89 85 78 58
290 227 282 239 109 104 99 117 145 151 110 76 150 138 118 126 141 149 156 164 142 128 133 134 141 143 149 144 144 144 136 128 128 124 120 117 115 114 111 107 107 104 103 101 96 91 87 79 62
259 312 279 342 51 133 123 141 178 157 141 165 23 346 113 143 163 171 163 173 134 124 131 139 149 150 143 144 148 148 141 135 134 126 119 116 115 113 111 112 113 112 110 105 102 97 93 82 62
347 285 283 265 314 84 108 154 313 180 99 85 48 354 155 167 151 160 176 169 138 135 138 152 153 153 151 146 147 153 143 142 135 118 113 107 103 104 106 109 116 115 113 110 105 98 92 74 59
266 326 277 259 127 108 120 159 316 18 107 81 142 57 355 133 134 158 178 163 155 139 141 153 158 162 162 154 153 146 150 145 125 124 126 125 128 116 111 107 115 118 118 114 110 106 95 74 59
192 165 267 7 27 12 144 208 146 155 187 186 139 85 93 126 145 151 217 174 171 155 151 165 175 175 172 166 147 161 158 157 151 148 164 149 141 139 105 101 105 112 116 118 119 121 118 89 55
213 213 23 61 38 2 162 216 154 167 253 189 192 160 170 157 170 168 217 195 204 170 167 182 176 181 163 159 160 174 162 168 167 161 187 167 121 124 119 114 104 106 107 121 121 131 99 78 71
296 213 15 34 47 331 320 326 214 212 221 87 37 151 158 173 188 181 190 202 178 189 213 212 176 180 164 165 175 179 171 174 178 174 183 160 139 143 145 142 141 152 142 158 109 81 85 79 74
233 114 56 66 90 290 15 279 257 260 231 156 87 98 167 181 197 199 186 193 199 187 194 191 183 203 199 193 171 190 179 176 173 167 188 166 153 162 157 146 154 155 149 139 114 115 104 99 91
357 36 201 142 216 192 288 279 168 249 238 242 156 185 199 186 198 195 199 192 200 195 188 178 190 193 208 170 176 203 189 179 178 175 185 168 165 169 158 154 152 148 154 142 138 129 120 111 104
44 259 202 212 212 236 220 281 239 216 178 243 225 187 202 208 197 202 201 204 194 196 181 178 180 205 215 180 190 193 187 198 181 182 172 178 171 160 153 156 156 154 158 142 133 126 118 110 110
224 178 238 145 141 165 171 272 299 162 182 205 246 241 208 217 203 204 200 194 201 186 183 170 179 191 211 211 189 193 189 193 188 190 177 177 176 168 162 164 168 157 150 132 125 136 130 123 129
202 256 214 163 191 138 191 279 73 89 68 260 253 240 234 220 211 197 201 196 192 190 181 182 177 186 199 216 191 204 200 201 196 189 185 177 171 169 166 168 162 153 151 148 145 138 148 138 142
251 222 258 222 189 265 240 257 280 255 204 222 236 251 241 229 224 196 193 193 188 193 185 187 176 179 183 191 190 202 196 208 206 203 205 180 164 171 170 168 158 160 154 152 151 155 155 140 146
25 322 332 56 119 157 240 260 260 261 253 240 234 227 232 241 230 206 192 186 185 188 189 187 176 178 177 183 189 193 198 191 206 209 210 181 171 168 178 169 162 170 167 173 164 157 150 134 131
174 290 284 299 102 131 274 277 265 266 248 232 242 243 242 241 227 221 197 179 180 188 190 183 186 181 188 192 194 190 166 207 192 184 207 239 176 172 181 172 175 175 165 157 178 162 144 130 170
230 238 265 276 358 222 290 279 237 253 252 249 243 248 248 241 239 228 194 184 173 183 186 194 196 188 188 187 165 153 131 220 187 192 209 214 199 167 176 186 177 177 172 175 176 175 176 161 194
254 270 221 319 23 249 35 288 291 297 282 229 244 234 238 239 237 229 218 187 181 190 179 182 184 182 186 181 182 189 195 189 202 174 174 208 194 187 187 191 179 179 177 181 184 180 185 163 180
198 5 119 108 240 318 205 244 268 247 267 251 265 265 250 254 218 206 205 192 187 172 179 177 179 187 184 188 190 185 201 198 159 164 181 204 206 206 202 194 183 181 184 185 182 181 189 192 175
133 97 117 142 192 264 205 209 231 229 237 278 136 103 90 73 49 29 56 43 136 165 173 179 180 190 185 185 197 194 192 182 189 181 181 188 204 204 198 193 186 185 185 181 185 192 193 194 188
256 144 296 306 323 235 324 246 236 291 289 255 275 284 34 142 143 246 203 209 231 174 162 165 175 192 186 186 193 204 202 189 202 192 189 187 197 203 195 192 188 187 185 185 183 188 194 193 204
197 186 171 206 203 266 330 246 263 218 256 283 277 303 283 246 210 223 237 200 183 180 165 171 190 204 193 192 200 201 209 215 220 212 199 201 195 205 193 196 194 189 181 179 184 182 195 195 207
181 220 250 340 16 36 233 274 293 199 235 300 297 313 318 359 22 360 245 155 143 163 184 185 191 212 221 205 203 210 209 206 216 223 196 194 193 189 184 187 188 186 188 183 185 185 190 191 189
181 203 108 259 200 251 264 293 246 341 242 244 214 84 48 34 27 350 79 106 102 147 169 181 190 199 210 212 209 213 216 215 218 213 207 202 193 192 181 186 191 190 187 186 187 187 188 189 197
144 226 217 167 181 181 273 255 267 161 77 99 68 56 48 83 81 79 95 107 148 174 193 196 201 201 203 205 209 211 223 226 221 221 213 204 190 182 176 178 182 181 180 183 186 178 178 186 178
263 221 193 167 230 244 168 267 75 100 111 97 90 325 317 33 45 66 140 176 186 220 234 227 217 215 211 206 202 204 210 220 231 223 212 198 200 184 171 163 164 169 174 178 187 184 187 181 182